{"data":{"norad_id":45443,"intl_designator":"2020-020V","name":"ONEWEB-0055","alt_names":[],"object_type":"PAYLOAD","status":"ACTIVE","operator":null,"country":"UK","launch_date":"2020-03-21","launch_site_code":"TYMSC","launch_vehicle":null,"mission":null,"orbit_class":"UNKNOWN","rcs_meters":null,"size_class":null,"mass_kg":null,"dimensions":null,"purposes":["comms"],"wikipedia_slug":null,"has_3d_model":false,"image_url":null,"decayed_at":null,"tle_current":{"epoch":"2026-05-25T03:10:09.206400Z","epoch_age_seconds":59650,"freshness":"FRESH","line1":"1 45443U 20020V   26145.13205100  .00000247  00000+0  66059-3 0  9995","line2":"2 45443  87.8914  25.6527 0001692  80.7807 279.3512 13.11412783299598","mean_motion":13.11412783,"eccentricity":0.0001692,"inclination_deg":87.8914,"raan_deg":25.6527,"arg_perigee_deg":80.7807,"mean_anomaly_deg":279.3512,"bstar":0.00066059,"rev_number":29959,"period_min":109.80524352568,"perigee_km":1216.4135540696,"apogee_km":1218.983984894,"semimajor_km":7595.8357694818,"source":"CELESTRAK","updated_at":"2026-05-25T13:38:22.344868Z"}}}